OBJECT H, 42832

Orbit data source: Space-Track

You're viewing an Uncataloged Satellite

Recently launched and/or uncataloged satellites may have evolving metadata. Metadata may include but not limited to: Owner, Maufacturer, Bus, Motor, and Mission.

OBJECT H, 42832 is a satellite in SSO that was launched on Fri, 14 Jul 2017 UTC via a SOYUZ-2-1A launch vehicle from the Tyuratam Missile And Space Complex (TTMTR). Unknown objects in Earth's orbit typically refer to objects detected orbiting the Earth but have not yet been identified or cataloged. These objects could be anything from previously untracked satellites, spent rocket stages, debris from satellite collisions, or even natural meteoroids temporarily captured by Earth's gravity.

Loading next visibility...
Identifier
42832, 2017-042H
Orbit
SSO
Country
Flag of TBDTBD
Related business
None
Manufacturer
Unknown
Mission
Non-operational Amateur Technology
Bus & Motor
Unknown
Mass
Unknown
Launch date (UTC)
2017-07-14 (8 years ago)
Launch vehicle
SOYUZ-2-1A
Launch site
Tyuratam Missile And Space Complex (TTMTR)
Object type
Unknown
Shape & HBR
Box, 0.1 m
Radar Cross Section
0.015 m², Small (<0.1 m²)

Expand to show TLE details & history
Last TLE update: 8 hours ago

TLE from 8 hours ago
0 OBJECT H
1 42832U 17042H   25298.20158859  .00007934  00000-0  55635-3 0  9997
2 42832  97.3945 102.7296 0010374 192.4990 167.5981 15.05400596451556
Epoch: 2025-10-25T04:50Z
TLE epoch observation values (Epoch: 2025-10-25T04:50:17.254Z)
Latitude
-0.00006°
Longitude
-3.67782°
Altitude
560.369 km
Speed
7.577 km/s
True Right ascension
06h 50m 55s
True Declination
0° 00' 00"
Sunlit
Object was in daylight at epoch
Visualization orbit readout
Latitude
Unknown
Longitude
Unknown
Altitude
Unknown
Speed
Unknown
Apparent Right ascension
Unknown
Apparent Declination
Unknown
Sunlit
N/A
Visualization observer readout
Local Sidereal Time
08:12:45
Azimuth
Unknown
Elevation
Unknown
Doppler factor
Unknown
Orbital elements
Apogee altitude
554.446 km
Perigee altitude
540.077 km
Semi-major axis
6,925.398 km
Eccentricity
0.00104
Inclination
97.3945°
RAAN
102.7296°
Arg. of periapsis
192.499°
True anomaly
167.6236°
Mean anomaly
167.5981°
Eccentric anomaly
167.61085°
Mean motion
3.76596 °/min
Orbital period
95.59 mins
BSTAR
0.00055635
Loading maneuver chart data...
Computing Atmospheric mass density...
Loading historical data...
Loading historical data...
Loading historical data...
Loading historical data...
Loading historical data...
Loading historical data...
Loading historical data...

Documentation

Showing up to 5 results
|